Location: Newark
(0.5300°S, 127.4800°E)
Time: 10:54:41
(UTC+00:00)

Vanguard 3 - Pass Details

Date: 18 September 2019
Orbit: 508 x 3262 km, 33.3° (Epoch: 14 October)

Event Time Altitude Azimuth Distance (km) Brightness Sun altitude
Rises 07:48:56 0° 310° (NW) 6,453 12.5 23.8°
Reaches altitude 10° 07:53:54 10° 313° (NW) 5,047 12.1 22.6°
Maximum altitude 08:06:59 64° 32° (NNE) 1,676 8.9 19.3°
Drops below altitude 10° 08:14:08 10° 113° (ESE) 2,882 9.5 17.5°
Sets 08:16:14 0° 116° (ESE) 3,588 9.9 17.0°
